When you browse on this site, cookies collect data to enhance your experience and personalize the content and advertising you see.
Visit our Privacy Policy to learn more. By continuing to use the site, you agree to this use of cookies and data.
  • In Hungary
  • List of Countries
  • For 7 days
  • Water Temperature
  • Satellite Maps
  • Weather Map
  • News
  • Weather Widgets
  • user-avatar
    Login

    Hourly Weather Lysinin

    Today, 19 December, Wednesday

    Time Temperature Precipitation Wind Pressure Humidity
    00:00 -1°C° 0 mm 3 mps 760 mmHg 94%
    01:00 -1°C° 0 mm 3 mps 760 mmHg 94%
    02:00 -1°C° 0 mm 3 mps 760 mmHg 93%
    03:00 -1°C° 0 mm 3 mps 760 mmHg 91%
    04:00 -3°C° 0 mm 4 mps 760 mmHg 90%
    05:00 -3°C° 0 mm 4 mps 759 mmHg 90%
    06:00 -3°C° 0 mm 4 mps 759 mmHg 89%
    07:00 -3°C° 0 mm 4 mps 759 mmHg 88%
    08:00 -4°C° 0 mm 5 mps 759 mmHg 86%
    09:00 -4°C° 0 mm 5 mps 759 mmHg 84%
    10:00 -2°C° 0 mm 5 mps 758 mmHg 83%
    11:00 -2°C° 0 mm 5 mps 758 mmHg 81%
    12:00 -2°C° 0 mm 5 mps 758 mmHg 80%
    13:00 -2°C° 0 mm 5 mps 757 mmHg 79%
    14:00 -2°C° 0 mm 5 mps 757 mmHg 80%
    15:00 -2°C° 0 mm 5 mps 756 mmHg 81%
    16:00 -4°C° 0 mm 5 mps 756 mmHg 82%
    17:00 -4°C° 0 mm 5 mps 756 mmHg 81%
    18:00 -4°C° 0 mm 5 mps 756 mmHg 81%
    19:00 -4°C° 0 mm 5 mps 755 mmHg 80%
    20:00 -3°C° 0 mm 4 mps 755 mmHg 80%
    21:00 -2°C° 0 mm 4 mps 755 mmHg 80%
    22:00 -2°C° 0 mm 4 mps 755 mmHg 80%
    23:00 -2°C° 0 mm 4 mps 755 mmHg 81%

    Tomorrow, 20 December, Thursday

    Time Temperature Precipitation Wind Pressure Humidity
    00:00 -2°C° 0 mm 4 mps 755 mmHg 82%
    01:00 -1°C° 0 mm 3 mps 755 mmHg 83%
    02:00 -1°C° 0.2 mm 3 mps 755 mmHg 85%
    03:00 -1°C° 0.2 mm 3 mps 754 mmHg 87%
    04:00 -1°C° 0.2 mm 3 mps 754 mmHg 89%
    05:00 -1°C° 0.2 mm 3 mps 754 mmHg 89%
    06:00 -1°C° 0.2 mm 3 mps 754 mmHg 90%
    07:00 -1°C° 0.2 mm 3 mps 754 mmHg 90%
    08:00 -1°C° 0.2 mm 3 mps 754 mmHg 89%
    09:00 -1°C° 0.2 mm 3 mps 754 mmHg 88%
    10:00 -1°C° 0.2 mm 3 mps 754 mmHg 86%
    11:00 -1°C° 0.1 mm 3 mps 754 mmHg 86%
    12:00 -1°C° 0.1 mm 3 mps 754 mmHg 85%
    13:00 -1°C° 0.1 mm 3 mps 754 mmHg 84%
    14:00 -1°C° 0.1 mm 3 mps 753 mmHg 86%
    15:00 -1°C° 0.1 mm 3 mps 753 mmHg 88%
    16:00 -1°C° 0.1 mm 3 mps 753 mmHg 89%
    17:00 -1°C° 0.2 mm 3 mps 753 mmHg 91%
    18:00 -1°C° 0.2 mm 3 mps 753 mmHg 92%
    19:00 -1°C° 0.2 mm 3 mps 753 mmHg 94%
    20:00 -1°C° 0.2 mm 3 mps 753 mmHg 94%
    21:00 -1°C° 0.2 mm 3 mps 753 mmHg 95%
    22:00 0°C° 0.2 mm 3 mps 753 mmHg 96%
    23:00 0°C° 0 mm 3 mps 753 mmHg 95%

    Day after tomorrow, 21 December, Friday

    Time Temperature Precipitation Wind Pressure Humidity
    00:00 0°C° 0 mm 3 mps 753 mmHg 95%
    01:00 0°C° 0 mm 3 mps 752 mmHg 94%
    02:00 0°C° 0 mm 3 mps 752 mmHg 94%
    03:00 0°C° 0 mm 3 mps 752 mmHg 94%
    04:00 0°C° 0 mm 3 mps 752 mmHg 95%
    05:00 0°C° 0 mm 3 mps 752 mmHg 94%
    06:00 0°C° 0 mm 3 mps 751 mmHg 94%
    07:00 0°C° 0 mm 3 mps 751 mmHg 94%
    08:00 0°C° 0 mm 3 mps 751 mmHg 94%
    09:00 0°C° 0 mm 3 mps 751 mmHg 94%
    10:00 0°C° 0 mm 3 mps 750 mmHg 93%
    11:00 +1°C° 0 mm 3 mps 750 mmHg 94%
    12:00 0°C° 0 mm 4 mps 749 mmHg 95%
    13:00 0°C° 0 mm 4 mps 749 mmHg 95%
    14:00 0°C° 0.1 mm 4 mps 748 mmHg 94%
    15:00 0°C° 0.1 mm 4 mps 747 mmHg 94%
    16:00 0°C° 0.1 mm 5 mps 747 mmHg 93%
    17:00 0°C° 0.4 mm 5 mps 745 mmHg 93%
    18:00 0°C° 0.4 mm 5 mps 744 mmHg 93%
    19:00 -1°C° 0.4 mm 6 mps 743 mmHg 92%
    20:00 -1°C° 1.5 mm 6 mps 742 mmHg 93%
    21:00 +1°C° 1.5 mm 5 mps 742 mmHg 94%
    22:00 +1°C° 1.5 mm 5 mps 741 mmHg 94%
    23:00 +2°C° 0.4 mm 6 mps 741 mmHg 92%

    22 December, Saturday

    Time Temperature Precipitation Wind Pressure Humidity
    00:00 +2°C° 0.4 mm 7 mps 740 mmHg 89%
    01:00 +3°C° 0.4 mm 7 mps 740 mmHg 87%
    02:00 +3°C° 0.1 mm 7 mps 740 mmHg 86%
    03:00 +3°C° 0.1 mm 7 mps 741 mmHg 85%
    04:00 +3°C° 0.1 mm 7 mps 741 mmHg 84%
    05:00 +3°C° 0 mm 7 mps 741 mmHg 85%
    06:00 +3°C° 0 mm 7 mps 741 mmHg 86%
    07:00 +2°C° 0 mm 7 mps 741 mmHg 87%
    08:00 +3°C° 0 mm 7 mps 741 mmHg 88%
    09:00 +3°C° 0 mm 6 mps 741 mmHg 88%
    10:00 +3°C° 0 mm 6 mps 741 mmHg 89%
    11:00 +3°C° 0.1 mm 6 mps 741 mmHg 90%
    12:00 +3°C° 0.1 mm 5 mps 740 mmHg 91%
    13:00 +3°C° 0.1 mm 5 mps 740 mmHg 92%
    14:00 +3°C° 0.3 mm 5 mps 740 mmHg 93%
    15:00 +3°C° 0.3 mm 5 mps 741 mmHg 93%
    16:00 +3°C° 0.3 mm 5 mps 741 mmHg 94%
    17:00 +3°C° 0.1 mm 5 mps 742 mmHg 93%
    18:00 +3°C° 0.1 mm 5 mps 742 mmHg 93%
    19:00 +3°C° 0.1 mm 5 mps 743 mmHg 92%
    20:00 +3°C° 0.1 mm 5 mps 743 mmHg 93%
    21:00 +4°C° 0.1 mm 4 mps 744 mmHg 93%
    22:00 +3°C° 0.1 mm 4 mps 744 mmHg 94%
    23:00 +3°C° 0.2 mm 4 mps 745 mmHg 94%

    23 December, Sunday

    Time Temperature Precipitation Wind Pressure Humidity
    00:00 +3°C° 0.2 mm 3 mps 745 mmHg 94%
    01:00 +3°C° 0.2 mm 3 mps 746 mmHg 95%
    02:00 +3°C° 0.6 mm 4 mps 746 mmHg 93%
    03:00 +3°C° 0.6 mm 4 mps 747 mmHg 91%
    04:00 +3°C° 0.6 mm 4 mps 747 mmHg 89%
    05:00 +2°C° 0.4 mm 5 mps 747 mmHg 89%
    06:00 +2°C° 0.4 mm 5 mps 748 mmHg 88%
    07:00 +2°C° 0.4 mm 5 mps 748 mmHg 88%
    08:00 +2°C° 0.1 mm 6 mps 748 mmHg 87%
    09:00 +3°C° 0.1 mm 6 mps 748 mmHg 86%
    10:00 +3°C° 0.1 mm 6 mps 749 mmHg 84%
    11:00 +3°C° 0 mm 6 mps 749 mmHg 81%
    12:00 +4°C° 0 mm 7 mps 749 mmHg 78%
    13:00 +4°C° 0 mm 7 mps 749 mmHg 75%
    14:00 +4°C° 0 mm 7 mps 749 mmHg 76%
    15:00 +4°C° 0 mm 7 mps 749 mmHg 78%
    16:00 +3°C° 0 mm 7 mps 749 mmHg 79%
    17:00 +3°C° 0.1 mm 7 mps 749 mmHg 80%
    18:00 +3°C° 0.1 mm 7 mps 749 mmHg 80%
    19:00 +2°C° 0.1 mm 8 mps 749 mmHg 81%
    20:00 +2°C° 0.1 mm 7 mps 750 mmHg 80%
    21:00 +2°C° 0.1 mm 7 mps 751 mmHg 79%
    22:00 +1°C° 0.1 mm 6 mps 751 mmHg 78%
    23:00 -1°C° 0 mm 6 mps 752 mmHg 79%

    24 December, Monday

    Time Temperature Precipitation Wind Pressure Humidity
    00:00 0°C° 0 mm 5 mps 753 mmHg 80%
    01:00 -1°C° 0 mm 4 mps 754 mmHg 81%
    02:00 -1°C° 0 mm 4 mps 754 mmHg 84%
    03:00 -1°C° 0 mm 3 mps 755 mmHg 86%
    04:00 -1°C° 0 mm 3 mps 755 mmHg 88%
    05:00 -1°C° 0 mm 3 mps 756 mmHg 89%
    06:00 -1°C° 0 mm 2 mps 756 mmHg 90%
    07:00 -1°C° 0 mm 2 mps 756 mmHg 91%
    08:00 +1°C° 0 mm 2 mps 757 mmHg 90%
    09:00 0°C° 0 mm 3 mps 757 mmHg 89%
    10:00 +1°C° 0 mm 3 mps 757 mmHg 88%
    11:00 +1°C° 0 mm 3 mps 757 mmHg 86%
    12:00 +1°C° 0 mm 4 mps 758 mmHg 84%
    13:00 +1°C° 0 mm 4 mps 758 mmHg 82%
    14:00 +2°C° 0 mm 3 mps 758 mmHg 84%
    15:00 +1°C° 0 mm 3 mps 758 mmHg 87%
    16:00 +2°C° 0 mm 2 mps 758 mmHg 90%
    17:00 +2°C° 0 mm 2 mps 758 mmHg 91%
    18:00 +2°C° 0 mm 2 mps 759 mmHg 92%
    19:00 +2°C° 0 mm 2 mps 759 mmHg 93%
    20:00 +1°C° 0 mm 2 mps 759 mmHg 93%
    21:00 +1°C° 0 mm 2 mps 759 mmHg 94%
    22:00 +1°C° 0 mm 2 mps 759 mmHg 94%
    23:00 +1°C° 0 mm 2 mps 759 mmHg 94%
    Show more